Puyallup, WA
on Saturday, November 3, 2012

Saturday
Previous Day Next Day
Daily Summary
 ActualAverage (KSEA)Record (KSEA)
Temperature
Mean Temperature °F 48°F  
Max Temperature 60°F 54°F 74°F (2010)
Min Temperature 50°F 43°F 29°F (1953)
Degree Days
Heating Degree Days 10 17  
Month to date heating degree days 50  
Since 1 July heating degree days 647  
Cooling Degree Days 0 0  
Month to date cooling degree days 0  
Year to date cooling degree days 189  
Growing Degree Days5 (Base °F )  
Moisture
Dew Point 54°F   
Average Humidity 96    
Maximum Humidity 100    
Minimum Humidity 77    
Precipitation
Precipitation 0.11 in 0.20 in 1.37 in (1971)
Month to date precipitation 0.58  
Year to date precipitation 26.15  
Snow
Snow 0.00 in in 0.20 in (1973)
Month to date snowfall  
Since 1 July snowfall  
Snow Depth in   
Wind
Wind Speed 1 mph   
Max Wind Speed 9 mph   
Max Gust Speed mph   
Visibility 8 miles   
Events Rain   

Key: T is trace of precipitation, MM is missing value
Source: NWS Daily Summary
Time(PDT)TemperatureDew PointHumidity Pressure Visibility Wind DirectionWind SpeedGust SpeedPrecipitationEvents Conditions
12:15 AM 51.8°F 51.8°F 100% 29.98 in 3.0 miles Calm Calm - 0.01 in Rain Light Rain
12:35 AM 51.8°F 51.8°F 100% 29.98 in 3.0 miles Calm Calm - 0.01 in Rain Light Rain
12:55 AM 51.8°F 51.8°F 100% 29.98 in 5.0 miles Calm Calm - 0.01 in   Overcast
1:15 AM 51.8°F 51.8°F 100% 29.98 in 5.0 miles Calm Calm - N/A   Overcast
1:35 AM 51.8°F 51.8°F 100% 29.98 in 5.0 miles Calm Calm - N/A   Overcast
1:55 AM 51.8°F 51.8°F 100% 29.98 in 5.0 miles Calm Calm - N/A   Overcast
2:15 AM 51.8°F 51.8°F 100% 29.98 in 5.0 miles Calm Calm - N/A   Overcast
2:35 AM 51.8°F 51.8°F 100% 29.98 in 5.0 miles Calm Calm - N/A   Overcast
2:55 AM 51.8°F 51.8°F 100% 29.98 in 7.0 miles Calm Calm - N/A   Overcast
3:15 AM 51.8°F 51.8°F 100% 29.99 in 3.0 miles Calm Calm - 0.01 in Rain Light Rain
3:35 AM 51.8°F 51.8°F 100% 30.00 in 3.0 miles Calm Calm - 0.02 in Rain Light Rain
3:55 AM 51.8°F 51.8°F 100% 29.99 in 2.5 miles Calm Calm - 0.06 in Rain Light Rain
4:15 AM 51.8°F 51.8°F 100% 29.99 in 3.0 miles Calm Calm - 0.03 in Rain Light Rain
4:35 AM 51.8°F 51.8°F 100% 30.00 in 6.0 miles Calm Calm - 0.03 in Rain Light Rain
4:55 AM 51.8°F 51.8°F 100% 30.00 in 9.0 miles Calm Calm - 0.03 in   Overcast
5:15 AM 50.0°F 50.0°F 100% 30.01 in 5.0 miles Calm Calm - N/A   Overcast
5:35 AM 50.0°F 50.0°F 100% 30.01 in 8.0 miles Calm Calm - N/A   Overcast
5:55 AM 50.0°F 50.0°F 100% 30.01 in 10.0 miles Calm Calm - N/A   Overcast
6:15 AM 50.0°F 50.0°F 100% 30.01 in 10.0 miles Calm Calm - N/A   Overcast
6:35 AM 50.0°F 50.0°F 100% 30.01 in 10.0 miles Calm Calm - N/A   Overcast
6:55 AM 50.0°F 50.0°F 100% 30.01 in 10.0 miles Calm Calm - N/A   Overcast
7:15 AM 50.0°F 50.0°F 100% 30.01 in 10.0 miles Calm Calm - N/A   Overcast
7:35 AM 50.0°F 50.0°F 100% 30.01 in 10.0 miles Calm Calm - N/A   Overcast
7:55 AM 51.8°F 51.8°F 100% 30.02 in 10.0 miles Calm Calm - N/A   Overcast
8:15 AM 51.8°F 51.8°F 100% 30.04 in 10.0 miles Calm Calm - N/A   Overcast
8:35 AM 53.6°F 53.6°F 100% 30.04 in 10.0 miles Calm Calm - N/A   Mostly Cloudy
8:55 AM 53.6°F 53.6°F 100% 30.04 in 10.0 miles Calm Calm - N/A   Mostly Cloudy
9:15 AM 53.6°F 53.6°F 100% 30.04 in 10.0 miles Calm Calm - N/A   Overcast
9:35 AM 53.6°F 53.6°F 100% 30.04 in 10.0 miles Calm Calm - N/A   Overcast
9:55 AM 55.4°F 55.4°F 100% 30.04 in 10.0 miles Calm Calm - N/A   Mostly Cloudy
10:15 AM 55.4°F 55.4°F 100% 30.04 in 10.0 miles Calm Calm - N/A   Mostly Cloudy
10:35 AM 55.4°F 55.4°F 100% 30.04 in 10.0 miles Calm Calm - N/A   Partly Cloudy
10:55 AM 57.2°F 55.4°F 94% 30.04 in 10.0 miles Calm Calm - N/A   Partly Cloudy
11:15 AM 57.2°F 55.4°F 94% 30.05 in 10.0 miles SW 3.5 mph - N/A   Scattered Clouds
11:35 AM 57.2°F 55.4°F 94% 30.05 in 10.0 miles SW 4.6 mph - N/A   Partly Cloudy
11:55 AM 59.0°F 55.4°F 88% 30.06 in 10.0 miles SSW 4.6 mph - N/A   Scattered Clouds
12:15 PM 59.0°F 55.4°F 88% 30.06 in 10.0 miles SSW 5.8 mph - N/A   Mostly Cloudy
12:35 PM 59.0°F 55.4°F 88% 30.06 in 10.0 miles SW 4.6 mph - N/A   Mostly Cloudy
12:55 PM 59.0°F 55.4°F 88% 30.07 in 10.0 miles SW 8.1 mph - N/A   Mostly Cloudy
1:15 PM 60.8°F 55.4°F 82% 30.07 in 10.0 miles SSW 5.8 mph - N/A   Mostly Cloudy
1:35 PM 60.8°F 55.4°F 82% 30.07 in 10.0 miles SW 8.1 mph - N/A   Scattered Clouds
1:55 PM 60.8°F 55.4°F 82% 30.07 in 10.0 miles SW 5.8 mph - N/A   Mostly Cloudy
2:15 PM 60.8°F 55.4°F 82% 30.08 in 10.0 miles SW 8.1 mph - N/A   Mostly Cloudy
2:35 PM 59.0°F 53.6°F 82% 30.08 in 10.0 miles SW 8.1 mph - N/A   Mostly Cloudy
2:55 PM 59.0°F 53.6°F 82% 30.08 in 10.0 miles SW 8.1 mph - N/A   Mostly Cloudy
3:15 PM 60.8°F 53.6°F 77% 30.08 in 10.0 miles SSW 6.9 mph - N/A   Mostly Cloudy
3:35 PM 60.8°F 53.6°F 77% 30.09 in 10.0 miles SSW 5.8 mph - N/A   Overcast
3:55 PM 60.8°F 53.6°F 77% 30.10 in 10.0 miles SSW 6.9 mph - N/A   Overcast
4:15 PM 59.0°F 53.6°F 82% 30.11 in 10.0 miles SW 9.2 mph - N/A   Overcast
4:35 PM 57.2°F 55.4°F 94% 30.12 in 2.0 miles SW 4.6 mph - N/A Rain Light Rain
4:55 PM 57.2°F 55.4°F 94% 30.13 in 5.0 miles Calm Calm - 0.01 in Rain Light Rain
5:15 PM 57.2°F 55.4°F 94% 30.13 in 10.0 miles SSW 4.6 mph - N/A   Scattered Clouds
5:35 PM 57.2°F 55.4°F 94% 30.14 in 10.0 miles SW 4.6 mph - N/A   Clear
5:55 PM 55.4°F 55.4°F 100% 30.14 in 10.0 miles Calm Calm - N/A   Scattered Clouds
6:15 PM 55.4°F 55.4°F 100% 30.15 in 10.0 miles Calm Calm - N/A   Scattered Clouds
6:35 PM 55.4°F 55.4°F 100% 30.16 in 10.0 miles Calm Calm - N/A   Clear
6:55 PM 55.4°F 55.4°F 100% 30.16 in 10.0 miles Calm Calm - N/A   Partly Cloudy
7:15 PM 55.4°F 55.4°F 100% 30.17 in 8.0 miles Calm Calm - N/A Rain Light Rain
7:35 PM 55.4°F 55.4°F 100% 30.18 in 10.0 miles Calm Calm - N/A   Partly Cloudy
7:55 PM 55.4°F 55.4°F 100% 30.17 in 10.0 miles Calm Calm - N/A   Partly Cloudy
8:15 PM 55.4°F 55.4°F 100% 30.15 in 10.0 miles Calm Calm - N/A   Clear
8:35 PM 55.4°F 55.4°F 100% 30.15 in 10.0 miles Calm Calm - N/A   Partly Cloudy
8:55 PM 55.4°F 55.4°F 100% 30.15 in 10.0 miles Calm Calm - N/A   Partly Cloudy
9:15 PM 55.4°F 55.4°F 100% 30.16 in 10.0 miles Calm Calm - N/A   Scattered Clouds
9:35 PM 55.4°F 55.4°F 100% 30.16 in 10.0 miles Calm Calm - N/A   Partly Cloudy
9:55 PM 53.6°F 53.6°F 100% 30.17 in 10.0 miles Calm Calm - N/A   Clear
10:15 PM 53.6°F 53.6°F 100% 30.17 in 10.0 miles Calm Calm - N/A   Partly Cloudy
10:35 PM 53.6°F 53.6°F 100% 30.18 in 8.0 miles Calm Calm - N/A   Mostly Cloudy
10:55 PM 53.6°F 53.6°F 100% 30.18 in 10.0 miles Calm Calm - N/A   Overcast
11:15 PM 53.6°F 53.6°F 100% 30.18 in 10.0 miles Calm Calm - N/A   Overcast
11:35 PM 53.6°F 53.6°F 100% 30.19 in 10.0 miles Calm Calm - N/A   Overcast
11:55 PM 53.6°F 53.6°F 100% 30.19 in 5.0 miles Calm Calm - N/A   Overcast
Moon Phase
Nov. 03 Nov. 06 Nov. 13 Nov. 20 Nov. 28
Sunrise:07:55 AM (PDT) Moon Rise:09:28 PM (PDT)11/3
Sunset:05:48 PM (PDT) Moon Set:12:10 PM (PDT)11/3

Copyright © 2014 The Weather Underground, Inc.